This is the latest recevied weather packets stored in our database for station/object KJ5SC. If no packets are shown the sender has not sent any weather packets the latest 10 day(s).
| Time | Temp. | Humidity | Pressure | Rain* | Wind** | Luminosity | Snow |
|---|---|---|---|---|---|---|---|
| 1787937619 | 35° C | 55% | 1020.2 hPa | 0 mm | - | 760 W/m² | - |
| 1787937315 | 34.44° C | 57% | 1020.3 hPa | 0 mm | - | 741 W/m² | - |
| 1787937010 | 34.44° C | 55% | 1020.1 hPa | 0 mm | - | 729 W/m² | - |
| 1787936709 | 35° C | 56% | 1020.2 hPa | 0 mm | - | 607 W/m² | - |
| 1787936409 | 34.44° C | 57% | 1020.3 hPa | 0 mm | - | 701 W/m² | - |
| 1787936104 | 34.44° C | 59% | 1020.4 hPa | 0 mm | - | 706 W/m² | - |
| 1787935799 | 35° C | 56% | 1020.4 hPa | 0 mm | - | 694 W/m² | - |
| 1787935495 | 34.44° C | 56% | 1020.3 hPa | 0 mm | - | 681 W/m² | - |
| 1787935191 | 33.89° C | 62% | 1020.4 hPa | 0 mm | - | 687 W/m² | - |
| 1787934886 | 33.33° C | 63% | 1020.3 hPa | 0 mm | - | 669 W/m² | - |
| 1787934585 | 32.78° C | 68% | 1020.4 hPa | 0 mm | - | 671 W/m² | - |
| 1787934286 | 32.78° C | 69% | 1020.2 hPa | 0 mm | - | 652 W/m² | - |
| 1787933984 | 32.78° C | 67% | 1020.2 hPa | 0 mm | - | 636 W/m² | - |
| 1787933684 | 33.33° C | 69% | 1020.4 hPa | 0 mm | - | 139 W/m² | - |
| 1787933379 | 33.33° C | 69% | 1020.5 hPa | 0 mm | - | 639 W/m² | - |
| 1787933074 | 32.78° C | 70% | 1020.3 hPa | 0 mm | - | 599 W/m² | - |
| 1787932773 | 32.22° C | 75% | 1020.5 hPa | 0 mm | - | 589 W/m² | - |
| 1787932473 | 31.67° C | 72% | 1020.5 hPa | 0 mm | - | 580 W/m² | - |
| 1787932168 | 31.67° C | 77% | 1020.2 hPa | 0 mm | - | 555 W/m² | - |
| 1787931866 | 31.11° C | 78% | 1020.3 hPa | 0 mm | - | 544 W/m² | - |
| 1787931561 | 31.11° C | 79% | 1020.3 hPa | 0 mm | - | 530 W/m² | - |
| 1787931256 | 31.11° C | 78% | 1020.4 hPa | 0 mm | - | 510 W/m² | - |
| 1787930956 | 31.11° C | 79% | 1020.3 hPa | 0 mm | - | 498 W/m² | - |
| 1787930655 | 31.11° C | 81% | 1020.5 hPa | 0 mm | - | 488 W/m² | - |
| 1787930350 | 30.56° C | 81% | 1020.2 hPa | 0 mm | - | 470 W/m² | - |
* Rain latest hour (hover to see other rain measurements)
** Current wind speed in m/s (hover to see current wind gust speed)